Showing default

OPS 4467 B, 813

Orbit data source: Space-Track

OPS 4467 B, 813 is an American payload satellite in SSO that was launched on Thu, 18 Jun 1964 UTC via a THOR SLV-2 AGENA D launch vehicle from the Air Force Western Test Range (AFWTR). Payload-class satellites include a variety of spacecraft equipped with specific instruments for various scientific and technological missions. These include communications satellites like Starlink; space stations such as the ISS; scientific satellites like the Hubble; Earth observation satellites from companies like Planet Labs, Umbra, and HawkEye 360; GPS; miniature CubeSats for education and research; and military/defense satellites.

Loading next visibility...
Identifier
813, 1964-031B
Orbit
SSO
Country
Flag of USUS
Related business
Manufacturer
RCA/East Windsor
Mission
Spacecraft
Bus & Motor
P35, Unknown motor
Mass
50 kg wet, 50 kg dry
Launch date (UTC)
1964-06-18 (61 years ago)
Launch vehicle
THOR SLV-2 AGENA D
Launch site
Air Force Western Test Range (AFWTR)
Object type
Payload
Rocket body
Debris
Shape & HBR
Unknown
Radar Cross Section
Medium (>0.1 m² and <1 m²)

Expand to show TLE details & history
Last TLE update: 21 hours ago

TLE from 21 hours ago
0 OPS 4467 B
1 00813U 64031B   25306.22122706  .00000114  00000-0  73416-4 0  9995
2 00813  99.7987  68.0266 0006105  92.5140 267.6734 14.23642358182637
Epoch: 2025-11-02T05:18Z
TLE epoch observation values (Epoch: 2025-11-02T05:18:34.017Z)
Latitude
-0.00003°
Longitude
-53.3552°
Altitude
816.124 km
Speed
7.445 km/s
True Right ascension
04h 32m 06s
True Declination
0° 00' 00"
Sunlit
Object was in full shadow at epoch
Visualization orbit readout
Latitude
Unknown
Longitude
Unknown
Altitude
Unknown
Speed
Unknown
Apparent Right ascension
Unknown
Apparent Declination
Unknown
Sunlit
N/A
Visualization observer readout
Local Sidereal Time
22:28:40
Azimuth
Unknown
Elevation
Unknown
Doppler factor
Unknown
Orbital elements
Apogee altitude
814.659 km
Perigee altitude
805.881 km
Semi-major axis
7,188.407 km
Eccentricity
0.00061
Inclination
99.7987°
RAAN
68.0266°
Arg. of periapsis
92.514°
True anomaly
267.6035°
Mean anomaly
267.6734°
Eccentric anomaly
267.63845°
Mean motion
3.56118 °/min
Orbital period
101.09 mins
BSTAR
0.000073416
Loading maneuver chart data...
Computing Atmospheric mass density...
Loading historical data...
Loading historical data...
Loading historical data...
Loading historical data...
Loading historical data...
Loading historical data...
Loading historical data...
Other satellites on launch #31 in the year 1964 (1964-06-18 UTC)

Documentation

Showing up to 5 results
|